User: anonymous   Login
Location: Pilipovskiye Korichintsy
(49.1833°N, 27.4667°E)
Time: 09:23:59
(UTC+00:00)
Language:

Cosmos 841 Rocket - Orbit

View from above orbital plane
View from above orbital plane
View from above satellite
View from above satellite

Ground track
Ground track

The orbit data is extracted from the following two-line orbital elements,

1  9023U 76069B   20271.84111134 -.00000008 +00000-0 +60875-5 0  9997
2  9023 074.0442 044.3385 0018638 273.7337 086.1687 14.39660035317028
Epoch (UTC): 27 September 2020 20:11:12
Eccentricity: 0.0018638
inclination: 74.0442°
perigee height: 746 km
apogee height: 773 km
right ascension of ascending node: 44.3385°
argument of perigee: 273.7337°
revolutions per day: 14.39660035
mean anomaly at epoch: 86.1687°
orbit number at epoch: 31702

The dashed part of the orbit path shows where the satellite is in the earth's shadow,  

DLR